[[{"header":{"parameterUnit":"m.s-1","parameterCategory":2,"la1":30.2991,"la2":30.254,"lo1":-89.0895,"lo2":-89.0444,"dy":0.0017,"dx":0.0017,"nx":28,"ny":28,"refTime":"2024-03-07T03:00:00:Z","depth":"0","parameterNumber":2,"parameterNumberName":"U-component_of_CURRENTS"},"data":[0,0,0,0,0,0,0,0,0,0,0,0,0,0,0,0,0,0,0,0,0,0,0,0,0,0,0,0,0,0,0,0,0,0,0,0,0,0,0,0,0,0,0,0,0,0,0,0,0,0,0,0,0,0,0,0,0,0,0.4188,0.4188,0,0.4219,0.4219,0.4219,0.4196,0.4196,0.4196,0.4195,0.42,0.42,0.4201,0,0,0,0,0,0,0,0,0,0,0,0,0,0.4129,0.4129,0.4188,0.4189,0.419,0.4219,0.4219,0.4219,0.4196,0.4196,0.4195,0.4195,0.42,0.42,0.4201,0,0,0,0,0,0,0,0,0,0,0,0,0,0.415,0.4129,0.4187,0.4187,0.4188,0.4219,0.4219,0.4219,0.4197,0.4196,0.4195,0.4195,0.4199,0.42,0.4201,0.4217,0,0,0.4203,0.4203,0,0,0,0,0,0,0,0,0.4149,0.4152,0.4186,0.4187,0.4188,0.4209,0.4201,0.4219,0.4197,0.4186,0.4195,0.4195,0.4205,0.4206,0.4204,0.4217,0.4218,0.4203,0.4204,0.4204,0.4204,0,0,0,0,0,0,0,0.4148,0.415,0.4193,0.4187,0.4189,0.4193,0.4194,0.4204,0.4193,0.4187,0.4187,0.4201,0.4205,0.4203,0.4204,0.4218,0.4203,0.4204,0.4204,0.4205,0.4306,0.4308,0,0,0,0,0,0,0.4157,0.4149,0.4192,0.4195,0.4174,0.4195,0.4196,0.4197,0.4193,0.4194,0.4202,0.4201,0.4202,0.4203,0.4204,0.4269,0.4204,0.4205,0.4205,0.4304,0.4306,0.4309,0,0,0,0,0,0,0.4155,0.416,0.4191,0.4179,0.4184,0.4197,0.4198,0.4199,0.4203,0.4206,0.4205,0.4208,0.4201,0.4203,0.4238,0.4267,0.4205,0.4206,0.4301,0.4305,0.4308,0.4369,0,0,0,0,0,0,0.4153,0.4159,0.416,0.4179,0.4185,0.4219,0.42,0.42,0.4216,0.4214,0.4212,0.4211,0.4201,0.4237,0.4238,0.4267,0.4206,0.4298,0.4303,0.4307,0.4364,0.4374,0.4383,0,0,0,0,0,0.4151,0.4146,0.416,0.4166,0.4187,0.4221,0.4224,0.4227,0.4217,0.4226,0.4237,0.4211,0.4265,0.4239,0.4241,0.427,0.4296,0.4301,0.4306,0.436,0.4372,0.4382,0,0,0,0,0,0,0.4109,0.4145,0.416,0.4163,0.4201,0.422,0.4223,0.4235,0.4248,0.4245,0.4239,0.4241,0.4287,0.4275,0.4247,0.4315,0.4277,0.4282,0.4317,0.4329,0.4338,0.4363,0.4207,0,0,0,0,0,0.4108,0.4119,0.4162,0.4168,0.4184,0.4209,0.4221,0.4235,0.4254,0.4258,0.4264,0.4277,0.4308,0.4314,0.4335,0.4365,0.4368,0.4388,0.4397,0.4404,0.4429,0.4466,0.448,0.4326,0.4326,0.4325,0,0,0.4096,0.4117,0.4124,0.4163,0.4181,0.4216,0.4212,0.4239,0.4277,0.4258,0.4296,0.4313,0.4328,0.4372,0.439,0.4362,0.4449,0.4411,0.4417,0.4438,0.4473,0.4488,0.4501,0.4329,0.4328,0.4328,0,0,0.4083,0.4096,0.4108,0.4143,0.4193,0.4218,0.4233,0.4271,0.4292,0.4339,0.4348,0.4392,0.4411,0.4445,0.446,0.4535,0.4505,0.4531,0.4587,0.4622,0.4635,0.4646,0.4656,0.4668,0.4525,0.4525,0.4525,0,0.407,0.4087,0.4118,0.4148,0.4175,0.4223,0.4252,0.4294,0.4343,0.4372,0.4358,0.4436,0.4452,0.4526,0.4565,0.4556,0.456,0.4537,0.4633,0.4644,0.4655,0.4663,0.4675,0.4529,0.4528,0.4528,0.4528,0,0.4079,0.4096,0.4104,0.4161,0.4199,0.4228,0.4302,0.4349,0.4378,0.4419,0.4496,0.4528,0.4568,0.4591,0.4606,0.4696,0.4669,0.4646,0.46,0.4674,0.4678,0.4689,0.4534,0.4532,0.4531,0.4531,0,0,0.4032,0.4096,0.4099,0.4128,0.4205,0.424,0.4318,0.4398,0.4452,0.4508,0.4572,0.4654,0.4668,0.4692,0.4713,0.4765,0.4851,0.4747,0.4747,0.475,0.4914,0.4828,0.4832,0.4836,0.4839,0.4841,0.4881,0,0.4026,0.4067,0.4108,0.4162,0.4189,0.4266,0.4335,0.4424,0.4489,0.457,0.4637,0.4701,0.4705,0.4731,0.4789,0.4856,0.4887,0.4842,0.4851,0.4851,0.4759,0.4845,0.4729,0.475,0.4892,0.4894,0.4896,0,0.4015,0.4047,0.4082,0.4165,0.4184,0.4232,0.4344,0.4416,0.4552,0.4607,0.4684,0.4732,0.485,0.4823,0.4945,0.4914,0.4925,0.4957,0.4957,0.4869,0.4788,0.4704,0.4765,0.4694,0.4913,0.4912,0.491,0,0.3958,0.4026,0.4049,0.4077,0.4183,0.4221,0.4286,0.4414,0.4486,0.463,0.4691,0.4803,0.4873,0.4927,0.4998,0.4976,0.5114,0.5069,0.4989,0.4981,0.4884,0.4862,0.4873,0.5129,0.5129,0.5129,0.5129,0,0.3923,0.3943,0.4022,0.4039,0.4091,0.4179,0.4254,0.4349,0.4483,0.4579,0.4692,0.4787,0.4909,0.4994,0.5026,0.5057,0.5118,0.5029,0.5002,0.4899,0.488,0.4811,0.4765,0.513,0.513,0.513,0.513,0,0.3853,0.3896,0.3934,0.403,0.4059,0.4097,0.4222,0.4288,0.4424,0.4553,0.4602,0.4802,0.4929,0.5007,0.5121,0.5082,0.4989,0.5094,0.4959,0.4915,0.4741,0.4701,0.4478,0.4342,0.5012,0.5011,0.5009,0,0.3819,0.3829,0.391,0.3932,0.3968,0.4039,0.4093,0.4238,0.4316,0.4559,0.4618,0.4795,0.4925,0.5051,0.5048,0.5061,0.4925,0.4904,0.484,0.4743,0.468,0.4476,0.4362,0.4732,0.4729,0.4726,0.4723,0,0.3771,0.3795,0.383,0.3874,0.3916,0.3978,0.4065,0.4116,0.4305,0.442,0.4609,0.4738,0.4899,0.49,0.491,0.4901,0.4693,0.4839,0.479,0.4516,0.4245,0.4095,0.4682,0.4698,0.47,0.4702,0.4703,0.4705,0.3734,0.3742,0.3789,0.3821,0.3866,0.3915,0.3928,0.4037,0.4145,0.4287,0.4492,0.4596,0.4721,0.4754,0.4703,0.4561,0.4502,0.4453,0.443,0.4244,0.4055,0.4572,0.4519,0.4521,0.4522,0.4523,0.4524,0,0.3694,0.3708,0.374,0.377,0.3781,0.384,0.3906,0.3891,0.3953,0.4121,0.4251,0.4324,0.4353,0.4388,0.4353,0.4209,0.3999,0.4102,0.3838,0.3759,0.4297,0.4234,0.4054,0.4054,0.4054,0.4054,0.4054,0.4054,0.3675,0.3678,0.369,0.3683,0.3697,0.3657,0.3665,0.3651,0.3713,0.3736,0.375,0.3852,0.4047,0.4175,0.4081,0.3977,0.3693,0.3518,0.347,0.3947,0.3979,0.4009,0.3942,0.3704,0.3704,0.2806,0.28,0.2795]},{"header":{"parameterUnit":"m.s-1","parameterCategory":2,"la1":30.2991,"la2":30.254,"lo1":-89.0895,"lo2":-89.0444,"dy":0.0017,"dx":0.0017,"nx":28,"ny":28,"refTime":"2024-03-07T03:00:00:Z","depth":"0","parameterNumber":3,"parameterNumberName":"V-component_of_CURRENTS"},"data":[0,0,0,0,0,0,0,0,0,0,0,0,0,0,0,0,0,0,0,0,0,0,0,0,0,0,0,0,0,0,0,0,0,0,0,0,0,0,0,0,0,0,0,0,0,0,0,0,0,0,0,0,0,0,0,0,0,0,-0.0305,-0.0306,0,-0.0332,-0.0332,-0.0333,-0.0357,-0.0357,-0.0358,-0.0358,-0.0451,-0.0453,-0.0455,0,0,0,0,0,0,0,0,0,0,0,0,0,-0.0308,-0.0308,-0.0305,-0.0306,-0.0306,-0.0332,-0.0332,-0.0333,-0.0357,-0.0357,-0.0358,-0.0358,-0.045,-0.0453,-0.0456,0,0,0,0,0,0,0,0,0,0,0,0,0,-0.0318,-0.0308,-0.0305,-0.0322,-0.0323,-0.0332,-0.0332,-0.0333,-0.0357,-0.0357,-0.0358,-0.0358,-0.0449,-0.0453,-0.0456,-0.0466,0,0,-0.0466,-0.0467,0,0,0,0,0,0,0,0,-0.0317,-0.0318,-0.0319,-0.032,-0.0322,-0.0342,-0.0368,-0.0381,-0.0357,-0.0344,-0.0358,-0.0359,-0.0421,-0.0426,-0.0429,-0.0471,-0.0475,-0.0466,-0.0468,-0.0469,-0.047,0,0,0,0,0,0,0,-0.0317,-0.0317,-0.0316,-0.0319,-0.0321,-0.0339,-0.034,-0.037,-0.038,-0.0345,-0.0347,-0.035,-0.0422,-0.0425,-0.0431,-0.0476,-0.0466,-0.0469,-0.0471,-0.0472,-0.0551,-0.0551,0,0,0,0,0,0,-0.0311,-0.0316,-0.0315,-0.0317,-0.0321,-0.0338,-0.034,-0.0335,-0.0379,-0.0385,-0.035,-0.0351,-0.042,-0.0428,-0.0435,-0.0446,-0.0469,-0.0473,-0.0474,-0.0551,-0.0551,-0.0551,0,0,0,0,0,0,-0.0311,-0.0311,-0.0314,-0.0318,-0.0319,-0.0337,-0.0332,-0.0335,-0.0339,-0.0381,-0.0389,-0.035,-0.042,-0.043,-0.0461,-0.045,-0.0474,-0.0477,-0.0551,-0.0551,-0.0551,-0.0471,0,0,0,0,0,0,-0.0311,-0.031,-0.03,-0.0317,-0.0319,-0.0313,-0.0332,-0.0335,-0.0341,-0.0343,-0.0385,-0.0394,-0.0422,-0.0456,-0.0464,-0.0455,-0.048,-0.0551,-0.0551,-0.0551,-0.0473,-0.0468,-0.0464,0,0,0,0,0,-0.0311,-0.0287,-0.0299,-0.0298,-0.0305,-0.0313,-0.0315,-0.033,-0.034,-0.0336,-0.0369,-0.0392,-0.0464,-0.0458,-0.0468,-0.046,-0.0551,-0.0551,-0.0551,-0.0476,-0.0469,-0.0464,0,0,0,0,0,0,-0.0279,-0.0288,-0.0301,-0.0281,-0.0297,-0.0317,-0.0309,-0.0326,-0.0347,-0.0347,-0.0393,-0.0404,-0.0428,-0.0459,-0.0452,-0.0486,-0.0512,-0.0514,-0.0451,-0.0446,-0.0441,-0.0398,-0.0482,0,0,0,0,0,-0.0269,-0.0257,-0.0276,-0.0262,-0.0265,-0.0289,-0.0293,-0.0303,-0.0326,-0.0334,-0.0369,-0.0406,-0.0437,-0.0452,-0.0486,-0.0501,-0.0505,-0.0505,-0.05,-0.0496,-0.047,-0.0483,-0.0475,-0.0552,-0.0552,-0.0552,0,0,-0.0259,-0.0257,-0.0255,-0.0256,-0.0267,-0.0253,-0.0292,-0.0289,-0.0278,-0.0343,-0.0343,-0.0392,-0.044,-0.0456,-0.047,-0.0479,-0.0474,-0.0496,-0.0492,-0.0468,-0.0482,-0.0474,-0.0467,-0.0553,-0.0553,-0.0553,0,0,-0.0216,-0.0227,-0.0197,-0.0202,-0.0208,-0.0223,-0.0222,-0.0243,-0.0253,-0.0267,-0.0311,-0.0352,-0.0398,-0.0427,-0.0448,-0.044,-0.0452,-0.0455,-0.039,-0.0403,-0.0396,-0.039,-0.0366,-0.0359,-0.0448,-0.0448,-0.0448,0,-0.02,-0.0161,-0.0192,-0.016,-0.0152,-0.0205,-0.017,-0.0188,-0.022,-0.0217,-0.0258,-0.0321,-0.038,-0.0385,-0.039,-0.0427,-0.0418,-0.0404,-0.0393,-0.0388,-0.0383,-0.036,-0.0353,-0.0444,-0.0445,-0.0445,-0.0445,0,-0.0129,-0.0103,-0.0085,-0.0063,-0.0063,-0.0045,-0.0073,-0.0081,-0.0111,-0.0129,-0.0152,-0.0235,-0.0267,-0.0304,-0.0346,-0.0339,-0.0337,-0.0387,-0.0398,-0.0369,-0.0348,-0.0342,-0.0439,-0.044,-0.0441,-0.0442,0,0,-0.0074,-0.004,-0.0031,0.0,-0.0006,0.0008,0.0017,0.0023,0.005,-0.0016,0.0017,-0.0082,-0.0128,-0.0156,-0.0224,-0.0247,-0.0225,-0.0291,-0.0293,-0.0247,-0.0211,-0.0235,-0.0231,-0.0265,-0.0264,-0.0263,-0.0202,0,-0.0004,0.0082,0.0075,0.0144,0.0183,0.0143,0.0164,0.0157,0.0131,0.0143,0.0056,0.005,-0.007,-0.008,-0.0127,-0.0196,-0.0207,-0.0234,-0.0261,-0.0261,-0.0272,-0.0225,-0.0187,-0.0132,-0.0196,-0.0195,-0.0194,0,0.008,0.0129,0.0218,0.0267,0.0282,0.0312,0.0346,0.0358,0.0346,0.0329,0.0292,0.0229,0.0182,0.0073,-0.0018,-0.0022,-0.0102,-0.0165,-0.0165,-0.0207,-0.0274,-0.0178,-0.0118,-0.0346,-0.0185,-0.0185,-0.0186,0,0.0157,0.023,0.0311,0.0327,0.0369,0.0407,0.0425,0.0426,0.0465,0.0461,0.0497,0.0406,0.04,0.0269,0.0112,0.0061,0.0034,-0.006,-0.0148,-0.0149,-0.0131,-0.0134,-0.0278,-0.0107,-0.0107,-0.0107,-0.0107,0,0.0242,0.0306,0.036,0.0406,0.0511,0.0502,0.0601,0.06,0.0635,0.0727,0.0608,0.0675,0.0451,0.0393,0.021,0.0074,0.0107,-0.0105,-0.0133,-0.0103,-0.0104,-0.0316,-0.0438,-0.0105,-0.0105,-0.0106,-0.0106,0,0.0314,0.0346,0.0447,0.052,0.0555,0.0631,0.0726,0.0791,0.081,0.0932,0.0949,0.0909,0.0844,0.0621,0.0448,0.0237,-0.0033,0.0022,0.0089,0.0065,-0.0278,-0.0395,-0.0529,-0.0637,-0.0068,-0.0068,-0.0068,0,0.0357,0.0421,0.054,0.0614,0.0658,0.0764,0.0841,0.0879,0.0966,0.1098,0.1182,0.1167,0.1206,0.0937,0.0565,0.0274,0.003,0.0081,-0.0047,-0.0265,-0.0416,-0.0518,-0.0607,0.0024,0.0025,0.0025,0.0026,0,0.0443,0.0488,0.0572,0.0723,0.083,0.0949,0.1071,0.1171,0.1256,0.1396,0.1592,0.1653,0.1412,0.1133,0.0683,0.0459,-0.008,0.0079,-0.0164,-0.036,-0.0458,-0.0584,-0.0033,0.003,0.003,0.0029,0.0029,0.0029,0.0506,0.0584,0.0698,0.0839,0.0965,0.1124,0.1248,0.1407,0.161,0.1865,0.1911,0.2082,0.1626,0.1033,0.0662,-0.0016,-0.0049,-0.0245,-0.0361,-0.0438,-0.0579,-0.0008,0.0012,0.0011,0.0011,0.001,0.001,0,0.058,0.0668,0.0804,0.0978,0.1124,0.1175,0.1393,0.1547,0.183,0.2117,0.2334,0.2254,0.1687,0.1058,0.0129,-0.0382,-0.057,-0.0644,-0.0788,-0.0856,-0.0346,-0.0385,-0.043,-0.043,-0.043,-0.0429,-0.0429,-0.0429,0.0624,0.0759,0.0827,0.1075,0.1204,0.1415,0.1551,0.1812,0.2055,0.2445,0.2617,0.27,0.221,0.0581,-0.056,-0.0813,-0.1174,-0.1228,-0.1439,-0.1113,-0.1086,-0.106,-0.1129,-0.1329,-0.133,-0.1892,-0.1897,-0.1902]}],[{"header":{"parameterUnit":"m.s-1","parameterCategory":2,"la1":30.2991,"la2":30.254,"lo1":-89.0895,"lo2":-89.0444,"dy":0.0017,"dx":0.0017,"nx":28,"ny":28,"refTime":"2024-03-07T03:00:00:Z","depth":"2","parameterNumber":2,"parameterNumberName":"U-component_of_CURRENTS"},"data":[0,0,0,0,0,0,0,0,0,0,0,0,0,0,0,0,0,0,0,0,0,0,0,0,0,0,0,0,0,0,0,0,0,0,0,0,0,0,0,0,0,0,0,0,0,0,0,0,0,0,0,0,0,0,0,0,0,0,0.3015,0.3016,0,0.3077,0.3078,0.3078,0.3083,0.3083,0.3082,0.3082,0.3106,0.3107,0.3108,0,0,0,0,0,0,0,0,0,0,0,0,0,0.2952,0.2953,0.3015,0.3016,0.3017,0.3077,0.3078,0.3079,0.3083,0.3083,0.3082,0.3082,0.3106,0.3107,0.3109,0,0,0,0,0,0,0,0,0,0,0,0,0,0.2991,0.2953,0.3015,0.3028,0.303,0.3077,0.3078,0.3079,0.3084,0.3083,0.3082,0.3081,0.3105,0.3107,0.3109,0.3134,0,0,0.3114,0.3114,0,0,0,0,0,0,0,0,0.2989,0.2993,0.3026,0.3028,0.303,0.3074,0.3065,0.3096,0.3084,0.3061,0.3082,0.3081,0.3094,0.3096,0.3107,0.3135,0.3136,0.3114,0.3115,0.3116,0.3116,0,0,0,0,0,0,0,0.2986,0.2991,0.3038,0.3027,0.3029,0.3049,0.3053,0.3071,0.3079,0.3063,0.3064,0.3075,0.3094,0.3106,0.3108,0.3136,0.3114,0.3115,0.3116,0.3117,0.3185,0.3186,0,0,0,0,0,0,0.2981,0.2988,0.3036,0.304,0.3009,0.305,0.3055,0.3059,0.3079,0.3083,0.3075,0.3075,0.3103,0.3106,0.3109,0.3176,0.3116,0.3117,0.3118,0.3184,0.3185,0.3186,0,0,0,0,0,0,0.2979,0.2984,0.3033,0.3017,0.3025,0.3052,0.3057,0.306,0.3084,0.3089,0.3091,0.3096,0.3103,0.3106,0.3128,0.3175,0.3118,0.3119,0.3183,0.3184,0.3185,0.3286,0,0,0,0,0,0,0.2977,0.2983,0.2995,0.3017,0.3026,0.305,0.3058,0.3062,0.3091,0.3091,0.3107,0.3108,0.3102,0.3125,0.3129,0.3176,0.3121,0.3182,0.3184,0.3185,0.3282,0.329,0.3298,0,0,0,0,0,0.2974,0.2978,0.2995,0.3002,0.3038,0.305,0.3056,0.3072,0.3093,0.3093,0.3113,0.3108,0.3137,0.3127,0.3132,0.3181,0.3181,0.3183,0.3185,0.3278,0.3289,0.3298,0,0,0,0,0,0,0.2941,0.298,0.2999,0.3011,0.3029,0.3051,0.3061,0.3085,0.3105,0.3118,0.3122,0.3124,0.3164,0.3148,0.3137,0.3199,0.3158,0.3161,0.3227,0.3237,0.3245,0.3232,0.3122,0,0,0,0,0,0.2946,0.2968,0.2996,0.3006,0.3017,0.3049,0.3065,0.3083,0.3102,0.3112,0.3132,0.315,0.3175,0.3185,0.3197,0.3232,0.3232,0.3262,0.327,0.3277,0.3267,0.3314,0.3326,0.3192,0.3192,0.3192,0,0,0.2938,0.2963,0.2975,0.3004,0.3023,0.3048,0.3055,0.3082,0.3116,0.3113,0.3165,0.3185,0.3189,0.3231,0.3247,0.3225,0.3319,0.328,0.3287,0.3271,0.3317,0.333,0.3342,0.3193,0.3193,0.3193,0,0,0.2932,0.2951,0.2974,0.2999,0.304,0.3054,0.3067,0.3108,0.3134,0.3182,0.32,0.3242,0.327,0.3293,0.3305,0.3362,0.3363,0.337,0.3405,0.3453,0.3465,0.3475,0.3512,0.3524,0.3372,0.3372,0.3372,0,0.2934,0.2951,0.2977,0.3011,0.3035,0.306,0.3088,0.3121,0.317,0.3209,0.32,0.3289,0.33,0.3366,0.3384,0.3386,0.3403,0.3376,0.3467,0.3476,0.3485,0.352,0.3533,0.3377,0.3377,0.3376,0.3376,0,0.2944,0.2971,0.2979,0.3034,0.3063,0.3081,0.3132,0.3174,0.3215,0.3261,0.3339,0.3359,0.341,0.3429,0.3424,0.3504,0.3494,0.3479,0.3449,0.3506,0.3538,0.355,0.3385,0.3383,0.3381,0.338,0,0,0.2911,0.2978,0.2983,0.3016,0.3078,0.3098,0.3164,0.3225,0.3278,0.3341,0.3411,0.3471,0.3503,0.3516,0.3533,0.3565,0.3658,0.3549,0.355,0.3597,0.3764,0.372,0.3728,0.3669,0.3671,0.3672,0.3769,0,0.291,0.2963,0.3002,0.3052,0.3078,0.3139,0.319,0.3269,0.3323,0.3397,0.3462,0.3527,0.3532,0.3566,0.3609,0.3647,0.3689,0.3632,0.3689,0.369,0.3655,0.374,0.3445,0.3502,0.378,0.3782,0.3783,0,0.2902,0.294,0.2986,0.3067,0.3084,0.3125,0.3214,0.3274,0.339,0.344,0.3533,0.3581,0.3677,0.3645,0.3759,0.3727,0.3751,0.3764,0.3768,0.3693,0.3667,0.3484,0.3512,0.3802,0.3801,0.3799,0.3798,0,0.285,0.2927,0.2957,0.2987,0.3081,0.3126,0.3183,0.3295,0.3359,0.3481,0.3543,0.365,0.3724,0.3771,0.3839,0.3807,0.3935,0.3898,0.3879,0.3876,0.3614,0.3584,0.396,0.396,0.3959,0.3959,0.3959,0,0.2821,0.2847,0.2937,0.2959,0.3011,0.3104,0.3172,0.3253,0.3369,0.345,0.3571,0.3646,0.3759,0.3854,0.3873,0.3935,0.3984,0.3899,0.3906,0.3642,0.3615,0.385,0.3836,0.3963,0.3962,0.3961,0.3961,0,0.2756,0.2808,0.2854,0.2953,0.2987,0.3035,0.3161,0.3208,0.3341,0.3448,0.3499,0.3685,0.3818,0.3913,0.4008,0.3995,0.4033,0.4033,0.3719,0.3687,0.3927,0.3917,0.4017,0.4016,0.4016,0.4015,0.4015,0,0.2723,0.274,0.2838,0.2862,0.2904,0.2986,0.3031,0.3174,0.3242,0.3458,0.3509,0.3699,0.3803,0.3961,0.397,0.4017,0.4065,0.3751,0.3629,0.394,0.3937,0.3928,0.3919,0.3325,0.3319,0.3314,0.331,0,0.2664,0.27,0.274,0.2793,0.2839,0.2886,0.2983,0.3027,0.3199,0.3307,0.3463,0.3567,0.3755,0.3697,0.3787,0.3759,0.3719,0.3655,0.4071,0.3366,0.3298,0.3292,0.3304,0.3267,0.3271,0.3275,0.3277,0.3279,0.2612,0.2628,0.2681,0.2717,0.2756,0.277,0.2768,0.2879,0.2968,0.3094,0.3296,0.3367,0.3453,0.3458,0.3374,0.3313,0.3558,0.3379,0.3389,0.3405,0.3318,0.3254,0.3197,0.3201,0.3204,0.3207,0.321,0,0.2545,0.257,0.2601,0.2618,0.2587,0.2667,0.271,0.2678,0.2719,0.2886,0.3005,0.286,0.2868,0.2941,0.2795,0.2814,0.2732,0.2685,0.254,0.2589,0.2631,0.2497,0.2162,0.2158,0.2154,0.2151,0,0,0.2511,0.25,0.2515,0.2436,0.2447,0.2377,0.237,0.2356,0.2426,0.244,0.2485,0.2754,0.2883,0.2492,0.2451,0.2272,0.2395,0.2183,0.3036,0.2915,0.2951,0.3062,0.2917,0,0,0,0,0]},{"header":{"parameterUnit":"m.s-1","parameterCategory":2,"la1":30.2991,"la2":30.254,"lo1":-89.0895,"lo2":-89.0444,"dy":0.0017,"dx":0.0017,"nx":28,"ny":28,"refTime":"2024-03-07T03:00:00:Z","depth":"2","parameterNumber":3,"parameterNumberName":"V-component_of_CURRENTS"},"data":[0,0,0,0,0,0,0,0,0,0,0,0,0,0,0,0,0,0,0,0,0,0,0,0,0,0,0,0,0,0,0,0,0,0,0,0,0,0,0,0,0,0,0,0,0,0,0,0,0,0,0,0,0,0,0,0,0,0,0.0156,0.0156,0,0.0087,0.0086,0.0085,0.0033,0.0033,0.0033,0.0032,-0.0055,-0.0057,-0.0059,0,0,0,0,0,0,0,0,0,0,0,0,0,0.0172,0.0173,0.0156,0.0156,0.0155,0.0087,0.0086,0.0085,0.0033,0.0033,0.0033,0.0032,-0.0054,-0.0056,-0.0059,0,0,0,0,0,0,0,0,0,0,0,0,0,0.014,0.0173,0.0156,0.0122,0.0118,0.0087,0.0086,0.0085,0.0034,0.0033,0.0032,0.0032,-0.0053,-0.0056,-0.0059,-0.0067,0,0,-0.0068,-0.0069,0,0,0,0,0,0,0,0,0.0142,0.0139,0.0128,0.0124,0.012,0.0069,0.006,0.0034,0.0034,0.0064,0.0032,0.0032,-0.0014,-0.002,-0.0033,-0.0071,-0.0074,-0.0068,-0.007,-0.0071,-0.0072,0,0,0,0,0,0,0,0.0144,0.0141,0.0128,0.0127,0.0122,0.0085,0.008,0.0054,0.0028,0.0062,0.0058,0.0052,-0.0016,-0.003,-0.0036,-0.0076,-0.0068,-0.0071,-0.0073,-0.0074,-0.0116,-0.0115,0,0,0,0,0,0,0.0159,0.0144,0.013,0.0126,0.0131,0.0086,0.008,0.0085,0.0029,0.002,0.0053,0.005,-0.0025,-0.0032,-0.0039,-0.0037,-0.0071,-0.0074,-0.0076,-0.0116,-0.0115,-0.0115,0,0,0,0,0,0,0.016,0.0159,0.0133,0.0133,0.0127,0.0087,0.0092,0.0084,0.007,0.0022,0.0013,0.0048,-0.0026,-0.0035,-0.0054,-0.0041,-0.0076,-0.0078,-0.0117,-0.0116,-0.0115,-0.0041,0,0,0,0,0,0,0.0161,0.016,0.0165,0.0135,0.0128,0.0128,0.0092,0.0083,0.0068,0.0064,0.0015,0.0006,-0.0027,-0.0049,-0.0056,-0.0046,-0.0081,-0.0118,-0.0117,-0.0115,-0.0045,-0.0038,-0.0032,0,0,0,0,0,0.0162,0.0182,0.0166,0.0163,0.0138,0.0129,0.0123,0.009,0.0069,0.0073,0.0038,0.0008,-0.0046,-0.005,-0.006,-0.005,-0.0119,-0.0117,-0.0116,-0.0048,-0.0039,-0.0032,0,0,0,0,0,0,0.0192,0.0177,0.0159,0.0173,0.0155,0.0121,0.0121,0.0096,0.007,0.0063,0.0015,0.0005,-0.0007,-0.0037,-0.004,-0.0057,-0.0087,-0.0087,-0.0032,-0.0025,-0.0019,0.0006,-0.0083,0,0,0,0,0,0.0201,0.0209,0.0187,0.0195,0.0192,0.0155,0.0145,0.0123,0.0098,0.0085,0.005,0.0015,-0.0008,-0.0022,-0.0049,-0.0058,-0.0091,-0.0057,-0.0051,-0.0046,-0.0031,-0.0074,-0.007,-0.011,-0.011,-0.011,0,0,0.0214,0.0206,0.021,0.0201,0.0184,0.0193,0.0148,0.0142,0.0145,0.008,0.0074,0.0036,-0.0005,-0.0015,-0.0023,-0.0038,-0.0052,-0.0044,-0.0039,-0.0027,-0.0072,-0.0068,-0.0065,-0.0109,-0.0109,-0.0109,0,0,0.025,0.0241,0.026,0.0252,0.0234,0.0219,0.0223,0.0192,0.0176,0.0163,0.012,0.0094,0.0053,0.003,0.0012,0.0037,-0.0017,0.0024,0.0075,0.0033,0.0036,0.0038,0.0001,-0.0001,0.0027,0.0027,0.0027,0,0.0261,0.0286,0.0263,0.0278,0.0281,0.024,0.0263,0.0245,0.0209,0.0203,0.0174,0.0118,0.0078,0.0071,0.0078,0.0052,0.0018,0.005,0.0042,0.0043,0.0044,0.0005,0.0002,0.0031,0.003,0.003,0.003,0,0.031,0.0327,0.0341,0.035,0.0352,0.0365,0.0344,0.0339,0.0311,0.0286,0.0265,0.0206,0.0176,0.0155,0.0123,0.0115,0.0085,0.0054,0.0024,0.0053,0.001,0.0005,0.0036,0.0035,0.0034,0.0033,0,0,0.0345,0.037,0.0376,0.0397,0.0392,0.0406,0.0417,0.042,0.0435,0.038,0.0388,0.0332,0.029,0.0268,0.0216,0.0177,0.0148,0.0124,0.012,0.0092,0.0056,0.0034,0.0027,0.011,0.011,0.0109,0.0023,0,0.0388,0.0444,0.0441,0.0498,0.0529,0.0505,0.0527,0.0519,0.0497,0.0493,0.0422,0.0407,0.0336,0.0321,0.0271,0.0184,0.014,0.0175,0.003,0.0027,0.0006,0.0023,0.0059,-0.0015,0.0019,0.0018,0.0017,0,0.0436,0.0471,0.0539,0.0585,0.0597,0.0626,0.0661,0.0671,0.0649,0.0628,0.0588,0.0526,0.047,0.04,0.0264,0.0287,0.0184,0.0106,0.01,0.0054,-0.0003,-0.0038,-0.0025,0.001,0.001,0.0011,0.0011,0,0.0484,0.054,0.0604,0.0617,0.0661,0.0691,0.0715,0.0715,0.0744,0.0716,0.0726,0.0631,0.0598,0.0457,0.0292,0.0274,0.0136,0.0088,-0.003,-0.0033,-0.0041,-0.0044,-0.001,-0.001,-0.001,-0.001,-0.001,0,0.0535,0.0584,0.0637,0.0672,0.0759,0.0759,0.0838,0.0841,0.0858,0.0913,0.0804,0.0817,0.0609,0.05,0.0331,0.0147,0.0161,-0.0012,-0.0053,-0.0015,-0.0015,-0.0025,-0.0025,-0.0013,-0.0012,-0.0012,-0.0011,0,0.0577,0.0607,0.0686,0.0755,0.0786,0.0848,0.0933,0.0984,0.0988,0.1055,0.1052,0.0959,0.0818,0.0602,0.0378,0.0215,0.003,-0.0043,0.002,-0.0013,-0.0125,-0.0121,-0.0184,-0.0186,-0.0187,-0.0188,-0.0189,0,0.0603,0.065,0.0754,0.0815,0.0854,0.0945,0.1012,0.1049,0.1116,0.1152,0.1196,0.1079,0.1022,0.068,0.0369,0.007,0.0028,-0.0099,-0.0129,-0.0107,-0.0141,-0.0135,-0.0129,-0.0116,-0.0116,-0.0116,-0.0116,0,0.0658,0.0695,0.0766,0.0893,0.0983,0.1091,0.1195,0.127,0.1327,0.1379,0.143,0.1385,0.1068,0.0761,0.0344,0.0151,-0.0051,-0.0112,-0.0102,-0.0073,-0.0048,-0.008,-0.0075,-0.0117,-0.0117,-0.0117,-0.0117,-0.0117,0.07,0.0763,0.0861,0.0983,0.109,0.1231,0.1332,0.1439,0.1561,0.1654,0.1605,0.1545,0.1195,0.0663,0.0299,-0.0075,-0.0056,-0.0189,-0.0186,-0.0183,-0.0156,-0.0134,-0.0214,-0.0215,-0.0215,-0.0215,-0.0216,0,0.0759,0.0833,0.0944,0.1095,0.1216,0.1273,0.1451,0.1547,0.1698,0.1767,0.1798,0.1475,0.1123,0.0721,0.0157,-0.0177,-0.019,-0.0273,-0.0226,-0.0221,-0.0217,-0.0191,-0.026,-0.0261,-0.0262,-0.0263,0,0,0.0795,0.0909,0.0969,0.1177,0.1285,0.1465,0.1576,0.1711,0.1801,0.1859,0.1824,0.1745,0.1252,0.0832,0.0375,0.0047,-0.0002,-0.0001,0.0076,0.0192,0.0199,-0.0123,-0.0071,0,0,0,0,0]}],[{"header":{"parameterUnit":"m.s-1","parameterCategory":2,"la1":30.2991,"la2":30.254,"lo1":-89.0895,"lo2":-89.0444,"dy":0.0017,"dx":0.0017,"nx":28,"ny":28,"refTime":"2024-03-07T03:00:00:Z","depth":"4","parameterNumber":2,"parameterNumberName":"U-component_of_CURRENTS"},"data":[0,0,0,0,0,0,0,0,0,0,0,0,0,0,0,0,0,0,0,0,0,0,0,0,0,0,0,0,0,0,0,0,0,0,0,0,0,0,0,0,0,0,0,0,0,0,0,0,0,0,0,0,0,0,0,0,0,0,0.1783,0.1784,0,0.1878,0.1878,0.1879,0.1952,0.1953,0.1954,0.1954,0.2049,0.2051,0.2052,0,0,0,0,0,0,0,0,0,0,0,0,0,0.1664,0.1665,0.1783,0.1785,0.1786,0.1877,0.1879,0.188,0.1952,0.1953,0.1954,0.1955,0.2049,0.2051,0.2052,0,0,0,0,0,0,0,0,0,0,0,0,0,0.173,0.1666,0.1783,0.1835,0.1841,0.1877,0.1879,0.188,0.1951,0.1953,0.1954,0.1955,0.2048,0.205,0.2053,0.2039,0,0,0.206,0.2061,0,0,0,0,0,0,0,0,0.1726,0.1733,0.1826,0.1832,0.1838,0.1907,0.1871,0.1934,0.1951,0.1906,0.1955,0.1956,0.2003,0.2009,0.2019,0.2043,0.2048,0.206,0.2062,0.2063,0.2064,0,0,0,0,0,0,0,0.1721,0.173,0.1817,0.1828,0.1835,0.1854,0.1864,0.1883,0.1943,0.191,0.1916,0.1931,0.2006,0.2016,0.2022,0.2049,0.206,0.2063,0.2064,0.2065,0.2196,0.2198,0,0,0,0,0,0,0.1714,0.1726,0.1815,0.1821,0.1788,0.1855,0.1867,0.1881,0.1943,0.1955,0.193,0.1934,0.2012,0.2019,0.2025,0.2124,0.2063,0.2065,0.2067,0.2194,0.2196,0.2198,0,0,0,0,0,0,0.1711,0.1721,0.1811,0.1778,0.1791,0.1856,0.1871,0.1882,0.1935,0.1958,0.197,0.1977,0.2013,0.2022,0.2078,0.2124,0.2066,0.2069,0.2191,0.2195,0.2197,0.225,0,0,0,0,0,0,0.1707,0.1719,0.1746,0.1777,0.1793,0.1857,0.187,0.1883,0.1941,0.1949,0.2001,0.2009,0.2015,0.2074,0.208,0.2127,0.207,0.2189,0.2193,0.2196,0.2246,0.2255,0.2262,0,0,0,0,0,0.1703,0.173,0.1747,0.1759,0.1821,0.1858,0.1868,0.1916,0.1942,0.1969,0.2008,0.201,0.2103,0.2077,0.2084,0.2132,0.2187,0.2192,0.2196,0.2242,0.2253,0.2262,0,0,0,0,0,0,0.1697,0.1741,0.176,0.1802,0.1839,0.1873,0.1911,0.1937,0.1988,0.201,0.2027,0.2038,0.2107,0.2111,0.2082,0.2183,0.2149,0.2155,0.2182,0.2192,0.22,0.2205,0.2072,0,0,0,0,0,0.1704,0.174,0.1776,0.1815,0.1836,0.1879,0.1909,0.194,0.198,0.2007,0.2044,0.2085,0.2123,0.2151,0.2181,0.2228,0.2243,0.2268,0.2276,0.2282,0.2293,0.2354,0.2369,0.2213,0.2213,0.2213,0,0,0.1712,0.1745,0.1765,0.1817,0.1852,0.1888,0.1902,0.1958,0.2,0.2007,0.2087,0.2116,0.2143,0.2202,0.2234,0.2216,0.2335,0.2288,0.2294,0.23,0.236,0.2375,0.2389,0.2216,0.2216,0.2215,0,0,0.1734,0.1776,0.1808,0.1841,0.1902,0.1925,0.1949,0.2003,0.2045,0.2111,0.2132,0.2188,0.2249,0.2274,0.2293,0.2363,0.2375,0.2385,0.2431,0.2491,0.2504,0.2516,0.255,0.2565,0.2389,0.2389,0.2389,0,0.1744,0.1788,0.1824,0.1862,0.1898,0.1944,0.1983,0.2027,0.2096,0.2136,0.2151,0.2262,0.2283,0.2351,0.238,0.2383,0.2414,0.2388,0.2501,0.2513,0.2524,0.2557,0.2572,0.2392,0.2392,0.2391,0.2391,0,0.1777,0.1825,0.185,0.191,0.1952,0.1996,0.2051,0.2111,0.2169,0.221,0.2309,0.2343,0.2412,0.2429,0.2428,0.252,0.2515,0.2503,0.2473,0.2543,0.2573,0.2587,0.2396,0.2395,0.2394,0.2394,0,0,0.1761,0.1852,0.1866,0.1901,0.1983,0.2014,0.2097,0.2172,0.2238,0.2315,0.24,0.2469,0.2504,0.2528,0.2543,0.259,0.2688,0.2589,0.2591,0.2617,0.282,0.2643,0.2642,0.2705,0.2708,0.2711,0.2807,0,0.1777,0.1846,0.1895,0.1967,0.2002,0.2074,0.2144,0.2225,0.2303,0.2396,0.2457,0.2544,0.2537,0.2588,0.2637,0.268,0.2732,0.2663,0.2754,0.2756,0.2585,0.2654,0.272,0.2818,0.2821,0.2824,0.2826,0,0.1785,0.1835,0.1904,0.1997,0.2022,0.2082,0.2205,0.2272,0.2401,0.2471,0.2568,0.2622,0.2718,0.27,0.2818,0.2783,0.2815,0.2835,0.2839,0.2665,0.2606,0.2736,0.2852,0.285,0.2848,0.2846,0.2845,0,0.1738,0.1836,0.1893,0.1924,0.2039,0.2104,0.2178,0.2305,0.2375,0.253,0.2609,0.2718,0.2801,0.2863,0.2919,0.2891,0.3035,0.2993,0.2862,0.2849,0.2955,0.2942,0.3082,0.3082,0.3082,0.3082,0.3082,0,0.1711,0.1761,0.1885,0.1914,0.1999,0.2094,0.2199,0.2294,0.2436,0.2515,0.265,0.2726,0.2855,0.2944,0.2966,0.296,0.3082,0.2882,0.2868,0.2974,0.2962,0.2965,0.295,0.3085,0.3085,0.3084,0.3083,0,0.1638,0.1721,0.179,0.1927,0.1976,0.2041,0.2197,0.2263,0.2424,0.2537,0.2597,0.2775,0.2884,0.2981,0.3088,0.3008,0.3023,0.2994,0.3113,0.3103,0.2783,0.2771,0.2838,0.2832,0.2828,0.2824,0.2821,0,0.1599,0.163,0.1779,0.1825,0.1895,0.2005,0.2073,0.2239,0.2308,0.2531,0.2571,0.2751,0.2844,0.2862,0.2968,0.3004,0.2972,0.2955,0.2847,0.2781,0.2762,0.2756,0.275,0.2814,0.2813,0.2811,0.281,0,0.1518,0.1591,0.165,0.1747,0.1831,0.19,0.2018,0.2054,0.2236,0.2405,0.2492,0.2557,0.2678,0.275,0.2816,0.2828,0.2943,0.2906,0.2914,0.2813,0.2753,0.2737,0.2736,0.2795,0.2797,0.2798,0.2799,0,0.1461,0.1481,0.1572,0.1644,0.1736,0.1768,0.1845,0.1931,0.202,0.2266,0.2286,0.2478,0.2646,0.2661,0.2712,0.2723,0.2668,0.2563,0.2587,0.2606,0.2484,0.237,0.2294,0,0,0,0,0,0.1391,0.14,0.1458,0.1521,0.1604,0.166,0.1791,0.1872,0.2049,0.2054,0.2166,0.2265,0.2348,0.245,0.2414,0.2601,0.2674,0.2546,0.2563,0.2708,0.2726,0.2603,0,0,0,0,0,0,0.134,0.139,0.1411,0.1402,0.1422,0.1493,0.1569,0.1691,0.1711,0.1906,0.1974,0.2122,0.225,0.2351,0.2371,0.2399,0.2361,0.2668,0.2662,0.2698,0.2714,0.2729,0.2608,0,0,0,0,0]},{"header":{"parameterUnit":"m.s-1","parameterCategory":2,"la1":30.2991,"la2":30.254,"lo1":-89.0895,"lo2":-89.0444,"dy":0.0017,"dx":0.0017,"nx":28,"ny":28,"refTime":"2024-03-07T03:00:00:Z","depth":"4","parameterNumber":3,"parameterNumberName":"V-component_of_CURRENTS"},"data":[0,0,0,0,0,0,0,0,0,0,0,0,0,0,0,0,0,0,0,0,0,0,0,0,0,0,0,0,0,0,0,0,0,0,0,0,0,0,0,0,0,0,0,0,0,0,0,0,0,0,0,0,0,0,0,0,0,0,0.0203,0.0202,0,0.0155,0.0155,0.0154,0.0119,0.0119,0.0119,0.0118,0.006,0.0059,0.0057,0,0,0,0,0,0,0,0,0,0,0,0,0,0.0214,0.0215,0.0203,0.0202,0.0202,0.0156,0.0155,0.0154,0.0119,0.0119,0.0119,0.0118,0.006,0.0059,0.0057,0,0,0,0,0,0,0,0,0,0,0,0,0,0.0192,0.0215,0.0203,0.0179,0.0176,0.0156,0.0155,0.0154,0.0119,0.0119,0.0118,0.0118,0.0061,0.0059,0.0057,0.0054,0,0,0.0051,0.005,0,0,0,0,0,0,0,0,0.0194,0.0192,0.0183,0.018,0.0178,0.0143,0.0138,0.012,0.0119,0.0141,0.0118,0.0118,0.0087,0.0083,0.0075,0.0051,0.0048,0.0051,0.005,0.0049,0.0048,0,0,0,0,0,0,0,0.0195,0.0194,0.0184,0.0182,0.0179,0.0154,0.0151,0.0134,0.0116,0.0139,0.0136,0.0132,0.0086,0.0077,0.0073,0.0047,0.0051,0.0049,0.0048,0.0047,0.0018,0.0019,0,0,0,0,0,0,0.0205,0.0195,0.0185,0.0182,0.0185,0.0154,0.0151,0.0154,0.0117,0.0111,0.0132,0.013,0.008,0.0076,0.0071,0.0079,0.0049,0.0047,0.0046,0.0018,0.0018,0.0019,0,0,0,0,0,0,0.0206,0.0205,0.0187,0.0187,0.0183,0.0155,0.0159,0.0154,0.0147,0.0112,0.0105,0.0131,0.008,0.0074,0.0064,0.0076,0.0046,0.0045,0.0017,0.0018,0.0018,0.0086,0,0,0,0,0,0,0.0206,0.0206,0.0212,0.0188,0.0184,0.0183,0.0159,0.0153,0.0145,0.0142,0.0109,0.0103,0.0079,0.0067,0.0062,0.0073,0.0043,0.0017,0.0018,0.0018,0.0083,0.0088,0.0093,0,0,0,0,0,0.0207,0.022,0.0213,0.0211,0.0194,0.0183,0.0179,0.0156,0.0146,0.0148,0.0127,0.0104,0.0068,0.0067,0.006,0.007,0.0017,0.0017,0.0018,0.0081,0.0087,0.0093,0,0,0,0,0,0,0.0227,0.0217,0.0208,0.0217,0.0204,0.0178,0.0178,0.0163,0.0148,0.0146,0.0112,0.0105,0.01,0.0076,0.0075,0.0063,0.0037,0.0037,0.0087,0.0093,0.0098,0.0107,0.0041,0,0,0,0,0,0.0235,0.0243,0.0226,0.0233,0.023,0.0206,0.0199,0.0185,0.0167,0.016,0.0138,0.0114,0.0098,0.0089,0.007,0.0066,0.003,0.0067,0.0072,0.0076,0.008,0.0036,0.0038,0.0022,0.0022,0.0022,0,0,0.0245,0.0239,0.0244,0.0237,0.0226,0.0232,0.0201,0.0197,0.0202,0.0157,0.0158,0.0132,0.0101,0.0097,0.0092,0.0079,0.0062,0.0078,0.0082,0.0082,0.0037,0.0039,0.004,0.0022,0.0022,0.0022,0,0,0.0267,0.0265,0.0279,0.0274,0.0262,0.0253,0.0256,0.0235,0.0227,0.0223,0.0193,0.0176,0.0151,0.0131,0.0118,0.0139,0.0091,0.0132,0.0166,0.0125,0.0126,0.0126,0.0084,0.008,0.0134,0.0134,0.0135,0,0.0278,0.0295,0.028,0.029,0.0295,0.0268,0.0286,0.0275,0.0253,0.0251,0.0232,0.0194,0.0167,0.0161,0.0167,0.0151,0.0118,0.0148,0.0132,0.0131,0.0131,0.0087,0.0082,0.0138,0.0137,0.0137,0.0137,0,0.0307,0.0323,0.0332,0.0342,0.0345,0.0355,0.0343,0.0343,0.0329,0.0313,0.03,0.0259,0.0236,0.0224,0.0203,0.019,0.0164,0.0144,0.0118,0.0136,0.009,0.0083,0.0143,0.0141,0.014,0.014,0,0,0.0327,0.035,0.0355,0.0374,0.0375,0.0385,0.0397,0.0402,0.0414,0.0379,0.0384,0.0347,0.0317,0.03,0.0265,0.0228,0.0194,0.0189,0.0186,0.0152,0.0099,0.0084,0.0075,0.0169,0.0169,0.0168,0.0069,0,0.0356,0.0397,0.0398,0.0443,0.0467,0.0456,0.0475,0.0473,0.0461,0.0458,0.0406,0.0397,0.0349,0.0341,0.0296,0.0222,0.0179,0.0222,0.0082,0.0078,0.0066,0.0068,0.0166,0.0064,0.0062,0.0061,0.006,0,0.0382,0.041,0.0463,0.0505,0.0516,0.0542,0.0572,0.0583,0.0567,0.0555,0.0524,0.048,0.043,0.0383,0.0257,0.0286,0.02,0.0133,0.0128,0.0086,0.0051,0.004,0.0047,0.0048,0.0049,0.005,0.0051,0,0.0407,0.0455,0.0506,0.0519,0.056,0.0589,0.0613,0.0616,0.0639,0.0619,0.0623,0.0546,0.0514,0.0396,0.0259,0.0256,0.011,0.0087,-0.0011,-0.0014,-0.0001,-0.0,-0.0009,-0.0009,-0.0008,-0.0008,-0.0008,0,0.0434,0.0475,0.053,0.0558,0.0629,0.0637,0.0701,0.0708,0.0723,0.0754,0.068,0.0673,0.0515,0.0412,0.0277,0.0115,0.0119,-0.0007,-0.004,0.003,0.0035,-0.0006,-0.0004,-0.0012,-0.0011,-0.001,-0.001,0,0.0451,0.0483,0.0548,0.0614,0.0645,0.0696,0.0774,0.0811,0.0817,0.0853,0.0851,0.0766,0.0629,0.0459,0.0265,0.0148,-0.001,-0.0071,0.002,-0.0006,-0.0113,-0.0106,-0.0191,-0.0192,-0.0193,-0.0194,-0.0195,0,0.0461,0.0497,0.0595,0.0645,0.0684,0.0764,0.0818,0.0858,0.0902,0.0908,0.0925,0.0813,0.073,0.0452,0.0262,-0.0002,-0.0043,-0.0128,-0.0127,-0.0107,-0.0131,-0.0123,-0.0116,-0.0197,-0.0197,-0.0197,-0.0197,0,0.0483,0.0522,0.058,0.0686,0.0763,0.0851,0.0935,0.0975,0.1014,0.1018,0.0988,0.0843,0.0683,0.0457,0.0251,0.0061,-0.0073,-0.0141,-0.014,-0.0139,-0.0116,-0.0136,-0.0128,-0.0201,-0.0201,-0.02,-0.02,0,0.0502,0.0547,0.0629,0.0722,0.0821,0.0915,0.0958,0.1012,0.1055,0.1061,0.1045,0.0873,0.0776,0.0489,0.0301,0.011,0.0055,-0.001,-0.0017,-0.0015,0.0061,0.0118,0.0076,0,0,0,0,0,0.0518,0.0572,0.0657,0.0765,0.086,0.0927,0.1026,0.1058,0.1096,0.1084,0.1072,0.0924,0.0643,0.0523,0.0329,0.0259,0.0009,0.0023,-0.0072,-0.0223,-0.0219,-0.0162,0,0,0,0,0,0,0.053,0.061,0.0655,0.0783,0.086,0.0977,0.1045,0.1072,0.1072,0.1074,0.0932,0.0866,0.0595,0.0754,0.0323,0.0264,0.0175,-0.0105,-0.011,-0.0226,-0.0222,-0.0218,-0.0158,0,0,0,0,0]}]]